FW6498 Weather Reports


time (UTC)temp
C
wind
direction
speed
KPH
gust
KPH
rain 1hr
cm
rain 24hr
cm
rain mn
cm
humidity
%
barometer
mb
20260507231459 13 0 0.0 0.0 0.00 0.00 0.00 75 1014.5
20260507231001 13 0 0.0 0.0 0.00 0.00 0.00 75 1014.6
20260507230459 13 0 0.0 0.0 0.00 0.00 0.00 75 1014.6
20260507230000 13 0 0.0 0.0 0.00 0.00 0.00 75 1014.6
20260507225459 13 0 0.0 0.0 0.00 0.00 0.00 75 1014.7
20260507225001 13 0 0.0 0.0 0.00 0.00 0.00 76 1014.7
20260507224459 13 0 0.0 0.0 0.00 0.00 0.00 77 1014.7
20260507224001 13 0 0.0 0.0 0.00 0.00 0.00 77 1014.7
20260507223459 13 0 0.0 0.0 0.00 0.00 0.00 77 1014.8
20260507223000 13 0 0.0 0.0 0.00 0.00 0.00 77 1014.6
20260507222459 13 0 0.0 0.0 0.00 0.00 0.00 77 1014.7
20260507222001 13 0 0.0 0.0 0.00 0.00 0.00 76 1014.6
20260507221459 13 0 0.0 0.0 0.00 0.00 0.00 75 1014.4
20260507221000 13 0 0.0 0.0 0.00 0.00 0.00 75 1014.5
20260507220459 13 0 0.0 0.0 0.00 0.00 0.00 74 1014.4
20260507220001 13 0 0.0 0.0 0.00 0.00 0.00 74 1014.3
20260507215459 13 0 0.0 0.0 0.00 0.00 0.00 75 1014.2
20260507215000 13 0 0.0 0.0 0.00 0.00 0.00 74 1014.2
20260507214459 13 0 0.0 0.0 0.00 0.00 0.00 74 1014.3
20260507213459 13 0 0.0 0.0 0.00 0.00 0.00 73 1014.2
20260507213000 13 0 0.0 0.0 0.00 0.00 0.00 73 1014.2
20260507212459 13 0 0.0 0.0 0.00 0.00 0.00 73 1014.2
20260507212001 13 0 0.0 0.0 0.00 0.00 0.00 73 1014.1
20260507211459 13 0 0.0 0.0 0.00 0.00 0.00 73 1014.0
20260507211000 14 0 0.0 0.0 0.00 0.00 0.00 73 1014.0
20260507210001 14 0 0.0 0.0 0.00 0.00 0.00 73 1013.8
20260507205500 14 0 0.0 0.0 0.00 0.00 0.00 72 1014.0
20260507205000 14 0 0.0 0.0 0.00 0.00 0.00 72 1014.0
20260507204459 14 0 0.0 0.0 0.00 0.00 0.00 73 1014.0
20260507204000 14 0 0.0 0.0 0.00 0.00 0.00 72 1013.9
20260507203459 14 0 0.0 0.0 0.00 0.00 0.00 72 1013.9
20260507202459 15 0 0.0 0.0 0.00 0.00 0.00 72 1013.8
20260507201459 15 0 0.0 0.0 0.00 0.00 0.00 72 1013.9
20260507201000 15 0 0.0 0.0 0.00 0.00 0.00 71 1013.8
20260507200459 15 0 0.0 0.0 0.00 0.00 0.00 71 1013.8
20260507195500 15 0 0.0 0.0 0.00 0.00 0.00 71 1013.8
20260507195000 15 0 0.0 0.0 0.00 0.00 0.00 70 1013.7
20260507194459 15 0 0.0 0.0 0.00 0.00 0.00 70 1013.6
20260507194000 15 0 0.0 0.0 0.00 0.00 0.00 69 1013.5
20260507193459 15 0 0.0 0.0 0.00 0.00 0.00 69 1013.6
20260507193001 15 0 0.0 0.0 0.00 0.00 0.00 69 1013.4
20260507192500 15 0 0.0 0.0 0.00 0.00 0.00 69 1013.4
20260507192000 15 0 0.0 0.0 0.00 0.00 0.00 69 1013.4
20260507191459 15 0 0.0 0.0 0.00 0.00 0.00 69 1013.3
20260507191000 16 0 0.0 0.0 0.00 0.00 0.00 68 1013.2
20260507190001 16 0 0.0 0.0 0.00 0.00 0.00 68 1013.1
20260507185459 16 0 0.0 0.0 0.00 0.00 0.00 68 1013.0
20260507185000 16 0 0.0 0.0 0.00 0.00 0.00 68 1013.0
20260507184500 16 0 0.0 0.0 0.00 0.00 0.00 67 1013.0
20260507184001 16 0 0.0 0.0 0.00 0.00 0.00 66 1012.9
20260507183500 17 0 0.0 0.0 0.00 0.00 0.00 66 1013.0
20260507182459 17 0 0.0 0.0 0.00 0.00 0.00 64 1012.8
20260507182000 17 153 0.0 3.2 0.00 0.00 0.00 64 1012.9
20260507181001 17 0 0.0 0.0 0.00 0.00 0.00 64 1012.9
20260507180459 18 0 0.0 0.0 0.00 0.00 0.00 64 1012.9
20260507180001 18 0 0.0 0.0 0.00 0.00 0.00 63 1012.8
20260507175000 18 0 0.0 0.0 0.00 0.00 0.00 62 1012.6
20260507174500 18 0 0.0 0.0 0.00 0.00 0.00 62 1012.5
20260507173500 19 0 0.0 0.0 0.00 0.00 0.00 60 1012.3
20260507172500 19 205 0.0 6.4 0.00 0.00 0.00 58 1012.2
20260507172000 20 203 0.0 6.4 0.00 0.00 0.00 58 1012.0
20260507171001 20 186 0.0 1.6 0.00 0.00 0.00 57 1012.0
20260507170500 20 186 0.0 1.6 0.00 0.00 0.00 55 1012.0
20260507170000 20 204 0.0 1.6 0.00 0.00 0.00 55 1011.9
20260507165459 20 196 0.0 9.7 0.00 0.00 0.00 55 1011.9
20260507165001 21 196 0.0 9.7 0.00 0.00 0.00 55 1011.8
20260507164001 21 202 0.0 12.9 0.00 0.00 0.00 56 1011.8
20260507163459 21 207 0.0 12.9 0.00 0.00 0.00 55 1011.9
20260507163001 21 205 0.0 3.2 0.00 0.00 0.00 56 1011.8
20260507162459 21 159 0.0 1.6 0.00 0.00 0.00 56 1011.8
20260507162001 21 143 0.0 1.6 0.00 0.00 0.00 55 1011.8
20260507161500 21 149 0.0 1.6 0.00 0.00 0.00 55 1011.9
20260507161000 21 181 0.0 1.6 0.00 0.00 0.00 55 1011.9
20260507160459 21 178 0.0 12.9 0.00 0.00 0.00 55 1012.0
20260507160001 21 188 0.0 12.9 0.00 0.00 0.00 55 1011.9
20260507155501 21 193 0.0 11.3 0.00 0.00 0.00 55 1012.1
20260507155001 21 201 0.0 1.6 0.00 0.00 0.00 54 1012.1
20260507154001 20 199 0.0 1.6 0.00 0.00 0.00 57 1012.2
20260507153459 20 197 0.0 1.6 0.00 0.00 0.00 58 1012.2
20260507152500 20 207 0.0 6.4 0.00 0.00 0.00 59 1012.1
20260507152002 20 0 0.0 0.0 0.00 0.00 0.00 59 1012.1
20260507151500 20 166 0.0 1.6 0.00 0.00 0.00 59 1012.2
20260507151000 20 167 0.0 1.6 0.00 0.00 0.00 60 1012.1
20260507150459 20 186 0.0 1.6 0.00 0.00 0.00 60 1012.1
20260507150001 20 201 0.0 4.8 0.00 0.00 0.00 60 1012.1
20260507145001 20 0 0.0 0.0 0.00 0.00 0.00 60 1012.2
20260507144459 20 0 0.0 0.0 0.00 0.00 0.00 61 1012.2
20260507143500 19 191 0.0 1.6 0.00 0.00 0.00 60 1012.2
20260507143000 20 205 0.0 3.2 0.00 0.00 0.00 60 1012.3
20260507142500 20 208 0.0 3.2 0.00 0.00 0.00 60 1012.3
20260507142001 20 227 0.0 1.6 0.00 0.00 0.00 60 1012.4
20260507141500 20 202 0.0 12.9 0.00 0.00 0.00 60 1012.4
20260507141002 20 202 0.0 12.9 0.00 0.00 0.00 60 1012.5
20260507140459 20 200 0.0 1.6 0.00 0.00 0.00 59 1012.4
20260507140000 20 205 0.0 1.6 0.00 0.00 0.00 61 1012.4
20260507135500 20 0 0.0 0.0 0.00 0.00 0.00 61 1012.3
20260507134501 20 0 0.0 0.0 0.00 0.00 0.00 62 1012.3
20260507134000 20 203 0.0 1.6 0.00 0.00 0.00 61 1012.3
20260507133500 20 204 0.0 4.8 0.00 0.00 0.00 60 1012.4
20260507133001 20 203 0.0 4.8 0.00 0.00 0.00 61 1012.4
20260507132459 20 179 0.0 1.6 0.00 0.00 0.00 60 1012.4
20260507132001 20 157 0.0 1.6 0.00 0.00 0.00 61 1012.3
20260507131001 20 201 0.0 8.0 0.00 0.00 0.00 60 1012.5
20260507130500 20 164 0.0 1.6 0.00 0.00 0.00 60 1012.4
20260507130003 20 163 0.0 3.2 0.00 0.00 0.00 61 1012.5
20260507125000 20 199 0.0 3.2 0.00 0.00 0.00 63 1012.3
20260507124459 20 200 0.0 3.2 0.00 0.00 0.00 63 1012.4
20260507124000 19 189 0.0 3.2 0.00 0.00 0.00 63 1012.5
20260507123500 20 190 0.0 3.2 0.00 0.00 0.00 63 1012.5
20260507123001 19 197 0.0 1.6 0.00 0.00 0.00 63 1012.5
20260507122500 20 193 0.0 9.7 0.00 0.00 0.00 63 1012.6
20260507122000 20 194 0.0 9.7 0.00 0.00 0.00 63 1012.6
20260507121500 20 197 0.0 3.2 0.00 0.00 0.00 62 1012.5
20260507121001 20 165 0.0 1.6 0.00 0.00 0.00 62 1012.5
20260507120001 20 192 0.0 1.6 0.00 0.00 0.00 63 1012.6
20260507115500 20 144 0.0 3.2 0.00 0.00 0.00 63 1012.7
20260507115000 20 151 0.0 3.2 0.00 0.00 0.00 63 1012.7
20260507114500 20 187 0.0 4.8 0.00 0.00 0.00 64 1012.7
20260507113500 18 0 0.0 0.0 0.00 0.00 0.00 67 1012.6
20260507113001 18 147 0.0 1.6 0.00 0.00 0.00 68 1012.6
20260507112459 18 176 0.0 1.6 0.00 0.00 0.00 69 1012.7
20260507112001 17 195 0.0 14.5 0.00 0.00 0.00 69 1012.9
20260507111500 18 196 0.0 14.5 0.00 0.00 0.00 68 1012.9
20260507111000 17 200 0.0 6.4 0.00 0.00 0.00 69 1012.9
20260507110459 18 175 0.0 1.6 0.00 0.00 0.00 69 1012.9
20260507110001 18 160 0.0 3.2 0.00 0.00 0.00 69 1012.9
20260507105500 18 188 0.0 4.8 0.00 0.00 0.00 69 1012.9
20260507105001 17 193 0.0 4.8 0.00 0.00 0.00 69 1012.9
20260507104500 18 206 0.0 3.2 0.00 0.00 0.00 69 1012.9
20260507104000 18 184 0.0 4.8 0.00 0.00 0.00 69 1012.8
20260507103001 18 168 0.0 3.2 0.00 0.00 0.00 69 1012.8
20260507102500 18 164 0.0 3.2 0.00 0.00 0.00 69 1012.9
20260507102001 18 192 0.0 1.6 0.00 0.00 0.00 69 1012.9
20260507101000 18 178 0.0 3.2 0.00 0.00 0.00 68 1012.8
20260507100459 18 166 0.0 3.2 0.00 0.00 0.00 68 1012.8
20260507100001 18 158 0.0 1.6 0.00 0.00 0.00 68 1012.8
20260507095001 18 161 0.0 1.6 0.00 0.00 0.00 68 1012.7
20260507094500 18 205 0.0 1.6 0.00 0.00 0.00 67 1012.6
20260507094001 18 0 0.0 0.0 0.00 0.00 0.00 68 1012.6
20260507093500 18 218 0.0 1.6 0.00 0.00 0.00 68 1012.6
20260507093001 18 158 0.0 1.6 0.00 0.00 0.00 67 1012.6
20260507092459 18 185 0.0 3.2 0.00 0.00 0.00 68 1012.5
20260507091500 18 181 0.0 1.6 0.00 0.00 0.00 68 1012.4
20260507091001 18 182 0.0 1.6 0.00 0.00 0.00 68 1012.4
20260507090459 17 189 0.0 4.8 0.00 0.00 0.00 69 1012.3
20260507090001 17 203 0.0 4.8 0.00 0.00 0.00 69 1012.2
20260507085500 17 211 0.0 4.8 0.00 0.00 0.00 70 1012.2
20260507085001 17 212 0.0 4.8 0.00 0.00 0.00 70 1012.2
20260507084501 17 250 0.0 1.6 0.00 0.00 0.00 70 1012.1
20260507084001 17 253 0.0 1.6 0.00 0.00 0.00 71 1012.0
20260507083500 17 222 0.0 1.6 0.00 0.00 0.00 71 1012.0
20260507083001 17 220 0.0 1.6 0.00 0.00 0.00 71 1012.1
20260507082459 17 196 0.0 1.6 0.00 0.00 0.00 72 1012.1
20260507082001 17 196 0.0 1.6 0.00 0.00 0.00 72 1012.1
20260507081500 17 0 0.0 0.0 0.00 0.00 0.00 71 1012.1
20260507081001 17 0 0.0 0.0 0.00 0.00 0.00 71 1012.1
20260507080500 17 0 0.0 0.0 0.00 0.00 0.00 71 1012.0
20260507080001 17 0 0.0 0.0 0.00 0.00 0.00 71 1012.0
20260507075459 17 188 0.0 1.6 0.00 0.00 0.00 71 1011.9
20260507075001 17 188 0.0 1.6 0.00 0.00 0.00 71 1011.9
20260507074500 17 0 0.0 0.0 0.00 0.00 0.00 71 1011.9
20260507074001 17 0 0.0 0.0 0.00 0.00 0.00 72 1011.9
20260507073501 17 0 0.0 0.0 0.00 0.00 0.00 72 1011.8
20260507072500 16 122 0.0 1.6 0.00 0.00 0.00 73 1011.7
20260507072001 16 177 0.0 1.6 0.00 0.00 0.00 73 1011.7
20260507071500 16 177 0.0 1.6 0.00 0.00 0.00 73 1011.7
20260507071001 16 0 0.0 0.0 0.00 0.00 0.00 74 1011.7
20260507070500 16 168 0.0 1.6 0.00 0.00 0.00 74 1011.6
20260507065501 16 197 0.0 3.2 0.00 0.00 0.00 74 1011.5
20260507065001 16 197 0.0 3.2 0.00 0.00 0.00 74 1011.6
20260507064500 16 206 0.0 3.2 0.00 0.00 0.00 75 1011.7
20260507064001 16 206 0.0 3.2 0.00 0.00 0.00 75 1011.5
20260507063500 16 188 0.0 1.6 0.00 0.00 0.00 75 1011.5
20260507063000 16 195 0.0 8.0 0.00 0.00 0.00 75 1011.6
20260507062500 16 196 0.0 8.0 0.00 0.00 0.00 76 1011.6
20260507062002 16 194 0.0 1.6 0.00 0.00 0.00 76 1011.6
20260507061002 16 213 0.0 4.8 0.00 0.00 0.00 76 1011.4
20260507060500 15 205 0.0 4.8 0.00 0.00 0.00 77 1011.2
20260507060001 15 0 0.0 0.0 0.00 0.00 0.00 77 1011.2
20260507055500 15 0 0.0 0.0 0.00 0.00 0.00 77 1011.1
20260507055001 15 0 0.0 0.0 0.00 0.00 0.00 78 1011.0
20260507054002 15 0 0.0 0.0 0.00 0.00 0.00 78 1010.9
20260507052501 15 0 0.0 0.0 0.00 0.00 0.00 79 1010.9
20260507052001 15 0 0.0 0.0 0.00 0.00 0.00 79 1010.8
20260507051500 15 201 0.0 3.2 0.00 0.00 0.00 79 1010.6
20260507045500 15 0 0.0 0.0 0.00 0.00 0.00 79 1010.4
20260507045000 15 0 0.0 0.0 0.00 0.00 0.00 79 1010.2
20260507044500 15 0 0.0 0.0 0.00 0.00 0.00 79 1010.3
20260507044001 15 0 0.0 0.0 0.00 0.00 0.00 79 1010.2
20260507043500 15 0 0.0 0.0 0.00 0.00 0.00 79 1010.2
20260507043001 15 161 0.0 1.6 0.00 0.00 0.00 79 1010.1
20260507042500 14 161 0.0 1.6 0.00 0.00 0.00 79 1010.1
20260507042002 14 0 0.0 0.0 0.00 0.00 0.00 80 1010.1
20260507041500 14 0 0.0 0.0 0.00 0.00 0.00 80 1009.9
20260507041001 14 0 0.0 0.0 0.00 0.00 0.00 80 1009.9
20260507040500 14 0 0.0 0.0 0.00 0.00 0.00 79 1009.8
20260507040003 14 0 0.0 0.0 0.00 0.00 0.00 79 1009.8
20260507035500 15 0 0.0 0.0 0.00 0.00 0.00 79 1009.7
20260507035001 15 0 0.0 0.0 0.00 0.00 0.00 79 1009.6
20260507033001 15 0 0.0 0.0 0.00 0.00 0.00 78 1009.6
20260507032501 15 0 0.0 0.0 0.00 0.00 0.00 78 1009.5
20260507031500 15 0 0.0 0.0 0.00 0.00 0.00 78 1009.5
20260507031001 15 0 0.0 0.0 0.00 0.00 0.00 78 1009.4
20260507030500 15 0 0.0 0.0 0.00 0.00 0.00 77 1009.4
20260507030002 15 0 0.0 0.0 0.00 0.00 0.00 77 1009.4
20260507025500 15 0 0.0 0.0 0.00 0.00 0.00 76 1009.3
20260507025002 15 0 0.0 0.0 0.00 0.00 0.00 76 1009.3
20260507024500 15 0 0.0 0.0 0.00 0.00 0.00 75 1009.3
20260507024001 15 203 0.0 1.6 0.00 0.00 0.00 76 1009.1
20260507023500 15 196 0.0 1.6 0.00 0.00 0.00 76 1009.1
20260507023002 15 176 0.0 9.7 0.00 0.00 0.00 75 1009.0
20260507022500 15 175 0.0 9.7 0.00 0.00 0.00 75 1009.2
20260507021501 16 174 0.0 11.3 0.00 0.00 0.00 75 1009.2
20260507020500 15 164 0.0 6.4 0.00 0.00 0.00 75 1009.2
20260507020002 15 188 0.0 4.8 0.00 0.00 0.00 75 1009.1
20260507015501 16 181 0.0 9.7 0.00 0.00 0.00 74 1009.1
20260507015001 16 177 0.0 9.7 0.00 0.00 0.00 74 1009.1
20260507014501 16 169 0.0 12.9 0.00 0.00 0.00 74 1008.9
20260507014002 16 176 0.0 16.1 0.00 0.00 0.00 74 1009.0
20260507013501 16 189 0.0 16.1 0.00 0.00 0.00 73 1008.9
20260507013001 16 194 0.0 11.3 0.00 0.00 0.00 73 1008.9
20260507012500 16 177 1.6 19.3 0.00 0.00 0.00 72 1008.8
20260507011500 16 182 3.2 20.9 0.00 0.00 0.00 72 1008.8
20260507011001 16 171 3.2 20.9 0.00 0.00 0.00 71 1008.6
20260507010500 16 170 3.2 20.9 0.00 0.00 0.00 71 1008.5
20260507010001 17 181 1.6 17.7 0.00 0.00 0.00 71 1008.5
20260507005501 17 179 3.2 17.7 0.00 0.00 0.00 71 1008.5
20260507005002 17 179 4.8 22.5 0.00 0.00 0.00 71 1008.4
20260507004500 17 182 6.4 22.5 0.00 0.00 0.00 70 1008.4
20260507004001 17 174 6.4 22.5 0.00 0.00 0.00 70 1008.4
20260507003500 17 165 4.8 24.1 0.00 0.00 0.00 70 1008.4
20260507003002 17 181 4.8 24.1 0.00 0.00 0.00 70 1008.2
20260507002500 17 181 6.4 29.0 0.00 0.00 0.00 70 1008.2
20260507002001 17 174 8.0 29.0 0.00 0.00 0.00 70 1008.3
20260507001501 17 178 6.4 27.4 0.00 0.00 0.00 70 1008.2
20260507000500 17 194 4.8 33.8 0.00 0.00 0.00 70 1008.3
20260507000002 17 170 4.8 25.7 0.00 0.00 0.00 70 1008.1
20260506235501 17 168 4.8 25.7 0.00 0.00 0.00 70 1008.2
20260506235002 17 171 4.8 22.5 0.00 0.00 0.00 69 1008.0
20260506234500 17 177 3.2 24.1 0.00 0.00 0.00 69 1008.0
20260506234001 17 170 8.0 32.2 0.00 0.00 0.00 69 1008.0
20260506233500 17 171 8.0 32.2 0.00 0.00 0.00 69 1007.9